Location: North Runcton
(52.7000°N, 0.4333°E)
Time: 06:51:59
(UTC+00:00)

Cosmos 1842 - Pass Details

Date: 19 May 2025
Orbit: 439 x 450 km, 82.5° (Epoch: 18 June)

Event Time Altitude Azimuth Distance (km) Brightness Sun altitude
Exits shadow 23:38:39 43° 204° (SSW) 646 3.2 -17.2°
Maximum altitude 23:39:40 77° 282° (WNW) 472 2.9 -17.2°
Drops below altitude 10° 23:43:10 10° 8° (N) 1,603 6.9 -17.3°
Sets 23:45:15 0° 10° (N) 2,482 8.2 -17.3°
